User: anonymous   Login
Location: Township of South Roscoe
(37.9570°N, 100.1180°W)
Time: 08:51:16
(UTC+00:00)
Language:

Envisat - Orbit

View from above orbital plane
View from above orbital plane
View from above satellite
View from above satellite

Ground track
Ground track

The orbit data is extracted from the following two-line orbital elements,

1 27386U 02009A   22019.72121909  .00000105  00000-0  48106-4 0  9991
2 27386  98.1682   7.9363 0001185  86.7454  86.1588 14.38069763 42154
Epoch (UTC): 19 January 2022 17:18:33
Eccentricity: 0.0001185
inclination: 98.1682°
perigee height: 764 km
apogee height: 766 km
right ascension of ascending node: 7.9363°
argument of perigee: 86.7454°
revolutions per day: 14.38069763
mean anomaly at epoch: 86.1588°
orbit number at epoch: 4215

The dashed part of the orbit path shows where the satellite is in the earth's shadow,  

DLR